EST,Max TemperatureF,Mean TemperatureF,Min TemperatureF,Max Dew PointF,MeanDew PointF,Min DewpointF,Max Humidity, Mean Humidity, Min Humidity, Max Sea Level PressureIn, Mean Sea Level PressureIn, Min Sea Level PressureIn, Max VisibilityMiles, Mean VisibilityMiles, Min VisibilityMiles, Max Wind SpeedMPH, Mean Wind SpeedMPH, Max Gust SpeedMPH,PrecipitationIn, CloudCover, Events, WindDirDegrees
2012-12-1,22,14,5,18,10,2,88,75,61,30.74,30.66,30.55,10,8,2,6,2,8,T,6,Snow,9
2012-12-2,50,36,21,49,34,18,100,92,84,30.55,30.25,29.92,10,5,0,16,3,23,0.33,8,Fog-Rain-Snow,216
2012-12-3,48,39,30,46,37,30,100,83,65,30.31,30.08,29.91,10,7,0,23,4,32,0.03,7,Fog-Rain,295
2012-12-4,49,36,22,48,36,23,100,91,82,30.33,30.19,29.95,10,7,2,17,3,24,T,6,,185
2012-12-5,51,41,31,52,38,19,100,76,51,30.02,29.85,29.74,10,7,2,25,12,32,0.22,7,Rain,281
2012-12-6,33,26,18,18,14,12,84,64,43,30.31,30.22,30.04,10,10,10,26,13,33,0.00,2,,313
2012-12-7,40,28,15,36,26,15,100,82,64,30.30,30.15,30.04,10,10,8,16,2,21,T,6,Rain,195
2012-12-8,35,31,26,36,32,26,100,96,92,30.05,29.98,29.85,7,2,0,7,1,17,0.11,7,Fog-Rain,346
2012-12-9,41,33,24,36,30,21,100,77,54,30.34,30.11,29.87,10,7,1,17,6,22,0.00,6,,281
2012-12-10,32,29,26,32,28,22,100,85,69,30.25,29.81,29.47,10,2,0,14,6,17,0.55,8,Rain-Snow,26
2012-12-11,37,28,19,32,26,14,100,86,72,30.13,29.82,29.52,10,10,5,14,3,17,0.00,4,,309
2012-12-12,32,23,14,20,15,10,92,73,54,30.40,30.31,30.15,10,10,10,10,2,13,0.00,1,,288
2012-12-13,38,27,15,25,20,14,92,73,54,30.45,30.37,30.25,10,10,8,6,1,8,0.00,3,,154
2012-12-14,40,30,19,26,23,18,96,75,54,30.23,30.08,29.97,10,10,8,13,3,16,0.00,4,,215
2012-12-15,30,20,9,21,7,2,81,60,39,30.42,30.33,30.13,10,10,10,20,10,25,0.00,0,,341
2012-12-16,20,14,7,8,4,0,80,65,49,30.42,30.35,30.27,10,10,10,13,5,15,0.00,5,,20
2012-12-17,33,26,18,31,22,9,100,81,62,30.29,30.14,30.01,10,7,2,12,7,15,0.01,8,Snow,27
2012-12-18,40,36,32,38,35,30,100,93,85,30.00,29.74,29.49,10,6,2,17,10,23,0.26,8,Rain-Snow,46
2012-12-19,35,34,32,34,32,29,100,96,92,30.01,29.66,29.47,9,3,1,17,13,24,0.48,8,Rain-Snow,13
2012-12-20,33,30,27,30,28,25,100,88,75,30.22,30.12,30.00,10,6,2,12,7,14,0.04,8,Snow,8
2012-12-21,50,39,28,49,37,26,100,93,85,30.12,29.57,29.12,10,6,2,33,9,44,0.99,8,Rain-Snow,111
2012-12-22,44,34,24,41,32,14,96,86,75,29.46,29.26,29.13,10,9,5,17,8,28,0.04,7,Rain-Snow,218
2012-12-23,28,24,20,18,10,7,68,57,46,29.76,29.66,29.48,10,10,10,22,10,31,0.00,6,,281
2012-12-24,28,21,13,17,11,9,88,67,46,30.07,29.96,29.77,10,10,10,16,4,23,0.00,1,,282
2012-12-25,28,20,11,17,13,8,92,78,63,30.22,30.10,30.04,10,10,10,12,1,14,0.00,4,,340
2012-12-26,28,19,10,13,11,7,92,74,55,30.37,30.29,30.22,10,10,10,13,5,14,0.00,4,,5
2012-12-27,28,24,20,25,22,12,92,82,71,30.18,29.76,29.50,10,2,0,26,15,37,0.25,8,Fog-Snow,29
2012-12-28,30,23,15,23,19,11,92,78,63,29.93,29.71,29.51,10,8,0,26,17,33,0.02,5,Fog-Snow,320
2012-12-29,24,13,1,20,14,2,96,85,74,30.00,29.82,29.51,10,6,0,17,4,21,0.09,5,Fog-Snow,25
2012-12-30,24,18,11,20,15,0,92,77,61,29.71,29.46,29.37,10,4,0,25,19,36,0.17,7,Fog-Snow,322
2012-12-31,29,20,11,18,10,1,74,60,46,29.83,29.77,29.64,10,10,9,21,13,32,0.00,3,,288